Time,TemperatureF,DewpointF,PressureIn,WindDirection,WindDirectionDegrees,WindSpeedMPH,WindSpeedGustMPH,Humidity,HourlyPrecipIn,Conditions,Clouds,dailyrainin,SoftwareType,DateUTC
2013-01-30 00:00:00,64.0,64.0,29.50,SW,225,20.0,28.0,100,0.00,,,-99.99,Weather View 32 v60,2013-01-30 05:00:00,
2013-01-30 00:05:00,64.0,64.0,29.50,SW,225,10.0,28.0,100,0.00,,,-99.99,Weather View 32 v60,2013-01-30 05:05:00,
2013-01-30 00:10:00,64.0,64.0,29.50,SW,225,11.0,28.0,100,0.00,,,-99.99,Weather View 32 v60,2013-01-30 05:10:00,
2013-01-30 00:15:00,64.0,64.0,29.50,SW,225,14.0,28.0,100,0.00,,,-99.99,Weather View 32 v60,2013-01-30 05:15:00,
2013-01-30 00:20:00,64.0,64.0,29.49,SW,225,10.0,28.0,100,0.00,,,-99.99,Weather View 32 v60,2013-01-30 05:20:00,
2013-01-30 00:25:00,64.0,64.0,29.49,SW,225,18.0,28.0,100,0.00,,,-99.99,Weather View 32 v60,2013-01-30 05:25:00,
2013-01-30 00:30:00,64.0,64.0,29.48,SW,225,19.0,28.0,100,0.00,,,-99.99,Weather View 32 v60,2013-01-30 05:30:00,
2013-01-30 00:35:00,64.0,64.0,29.48,SW,225,21.0,28.0,100,0.00,,,-99.99,Weather View 32 v60,2013-01-30 05:35:00,
2013-01-30 00:40:00,64.0,64.0,29.48,SW,225,10.0,28.0,100,0.00,,,-99.99,Weather View 32 v60,2013-01-30 05:40:00,
2013-01-30 00:45:00,64.0,64.0,29.48,SW,225,12.0,28.0,100,0.00,,,-99.99,Weather View 32 v60,2013-01-30 05:45:00,
2013-01-30 00:50:00,64.0,64.0,29.47,SW,225,14.0,27.0,100,0.00,,,-99.99,Weather View 32 v60,2013-01-30 05:50:00,
2013-01-30 00:55:00,64.0,64.0,29.47,SW,225,16.0,26.0,100,0.00,,,-99.99,Weather View 32 v60,2013-01-30 05:55:00,
2013-01-30 01:00:00,64.0,64.0,29.46,SW,225,12.0,26.0,100,0.00,,,-99.99,Weather View 32 v60,2013-01-30 06:00:00,
2013-01-30 01:05:00,64.0,64.0,29.46,SW,225,24.0,26.0,100,0.00,,,-99.99,Weather View 32 v60,2013-01-30 06:05:00,
2013-01-30 01:10:00,64.0,64.0,29.47,SW,225,19.0,26.0,100,0.00,,,-99.99,Weather View 32 v60,2013-01-30 06:10:00,
2013-01-30 01:15:00,64.0,64.0,29.47,SW,225,17.0,26.0,100,0.00,,,-99.99,Weather View 32 v60,2013-01-30 06:15:00,
2013-01-30 01:20:00,64.0,64.0,29.46,SW,225,12.0,26.0,100,0.00,,,-99.99,Weather View 32 v60,2013-01-30 06:20:00,
2013-01-30 01:25:00,64.0,64.0,29.46,SW,225,13.0,26.0,100,0.00,,,-99.99,Weather View 32 v60,2013-01-30 06:25:00,
2013-01-30 01:30:00,65.0,65.0,29.46,SW,225,8.0,26.0,100,0.00,,,-99.99,Weather View 32 v60,2013-01-30 06:30:00,
2013-01-30 01:35:00,65.0,65.0,29.46,SW,225,16.0,29.0,100,0.00,,,-99.99,Weather View 32 v60,2013-01-30 06:35:00,
2013-01-30 01:40:00,66.0,65.4,29.44,SW,225,14.0,29.0,98,0.00,,,-99.99,Weather View 32 v60,2013-01-30 06:40:00,
2013-01-30 01:45:00,66.0,65.4,29.44,SW,225,12.0,29.0,98,0.00,,,-99.99,Weather View 32 v60,2013-01-30 06:45:00,
2013-01-30 01:50:00,67.0,65.8,29.44,SW,225,14.0,29.0,96,0.00,,,-99.99,Weather View 32 v60,2013-01-30 06:50:00,
2013-01-30 01:55:00,67.0,65.8,29.44,SW,225,7.0,31.0,96,0.00,,,-99.99,Weather View 32 v60,2013-01-30 06:55:00,
2013-01-30 02:00:00,67.0,65.8,29.42,SW,225,11.0,31.0,96,0.00,,,-99.99,Weather View 32 v60,2013-01-30 07:00:00,
2013-01-30 02:05:00,67.0,65.8,29.42,SW,225,15.0,31.0,96,0.00,,,-99.99,Weather View 32 v60,2013-01-30 07:05:00,
2013-01-30 02:10:00,67.0,65.8,29.42,SW,225,10.0,31.0,96,0.00,,,-99.99,Weather View 32 v60,2013-01-30 07:10:00,
2013-01-30 02:15:00,67.0,65.8,29.42,SW,225,17.0,31.0,96,0.00,,,-99.99,Weather View 32 v60,2013-01-30 07:15:00,
2013-01-30 02:20:00,67.0,65.5,29.39,SW,225,16.0,31.0,95,0.00,,,-99.99,Weather View 32 v60,2013-01-30 07:20:00,
2013-01-30 02:25:00,67.0,65.5,29.39,SW,225,10.0,31.0,95,0.00,,,-99.99,Weather View 32 v60,2013-01-30 07:25:00,
2013-01-30 02:30:00,67.0,65.2,29.40,SW,225,20.0,31.0,94,0.00,,,-99.99,Weather View 32 v60,2013-01-30 07:30:00,
2013-01-30 02:35:00,67.0,65.2,29.40,SW,225,16.0,31.0,94,0.00,,,-99.99,Weather View 32 v60,2013-01-30 07:35:00,
2013-01-30 02:40:00,67.0,64.9,29.41,SW,225,12.0,31.0,93,0.00,,,-99.99,Weather View 32 v60,2013-01-30 07:40:00,
2013-01-30 02:45:00,67.0,64.9,29.41,SW,225,12.0,31.0,93,0.00,,,-99.99,Weather View 32 v60,2013-01-30 07:45:00,
2013-01-30 02:50:00,67.0,64.9,29.40,SW,225,23.0,31.0,93,0.00,,,-99.99,Weather View 32 v60,2013-01-30 07:50:00,
2013-01-30 02:55:00,67.0,64.9,29.40,SW,225,19.0,37.0,93,0.00,,,-99.99,Weather View 32 v60,2013-01-30 07:55:00,
2013-01-30 03:00:00,67.0,64.9,29.39,SW,225,17.0,37.0,93,0.00,,,-99.99,Weather View 32 v60,2013-01-30 08:00:00,
2013-01-30 03:05:00,67.0,64.6,29.39,SW,225,24.0,37.0,92,0.00,,,-99.99,Weather View 32 v60,2013-01-30 08:05:00,
2013-01-30 03:15:00,67.0,64.6,29.38,SW,225,13.0,37.0,92,0.00,,,-99.99,Weather View 32 v60,2013-01-30 08:15:00,
2013-01-30 03:20:00,67.0,64.6,29.37,SW,225,19.0,37.0,92,0.00,,,-99.99,Weather View 32 v60,2013-01-30 08:20:00,
2013-01-30 03:25:00,67.0,64.3,29.37,SW,225,25.0,38.0,91,0.00,,,-99.99,Weather View 32 v60,2013-01-30 08:25:00,
2013-01-30 03:30:00,67.0,64.6,29.35,SW,225,10.0,38.0,92,0.00,,,-99.99,Weather View 32 v60,2013-01-30 08:30:00,
2013-01-30 03:35:00,68.0,65.3,29.35,SW,225,26.0,41.0,91,0.00,,,-99.99,Weather View 32 v60,2013-01-30 08:35:00,
2013-01-30 03:40:00,67.0,64.3,29.35,SW,225,16.0,41.0,91,0.00,,,-99.99,Weather View 32 v60,2013-01-30 08:40:00,
2013-01-30 03:45:00,67.0,64.3,29.35,SW,225,22.0,41.0,91,0.00,,,-99.99,Weather View 32 v60,2013-01-30 08:45:00,
2013-01-30 03:50:00,68.0,64.9,29.34,SW,225,18.0,41.0,90,0.00,,,-99.99,Weather View 32 v60,2013-01-30 08:50:00,
2013-01-30 03:55:00,67.0,64.3,29.34,SW,225,17.0,41.0,91,0.00,,,-99.99,Weather View 32 v60,2013-01-30 08:55:00,
2013-01-30 04:00:00,67.0,64.0,29.32,SW,225,16.0,41.0,90,0.00,,,-99.99,Weather View 32 v60,2013-01-30 09:00:00,
2013-01-30 04:05:00,67.0,64.0,29.32,SW,225,23.0,41.0,90,0.00,,,-99.99,Weather View 32 v60,2013-01-30 09:05:00,
2013-01-30 04:09:00,67.0,64.6,29.38,SW,225,18.0,37.0,92,0.00,,,-99.99,Weather View 32 v60,2013-01-30 09:09:00,
2013-01-30 04:10:00,67.0,64.0,29.32,SW,225,19.0,41.0,90,0.00,,,-99.99,Weather View 32 v60,2013-01-30 09:10:00,
2013-01-30 04:15:00,68.0,64.9,29.32,SW,225,23.0,41.0,90,0.01,,,-99.99,Weather View 32 v60,2013-01-30 09:15:00,
2013-01-30 04:20:00,68.0,64.9,29.31,SW,225,14.0,41.0,90,0.01,,,-99.99,Weather View 32 v60,2013-01-30 09:20:00,
2013-01-30 04:30:00,68.0,64.9,29.31,SW,225,23.0,41.0,90,0.01,,,-99.99,Weather View 32 v60,2013-01-30 09:30:00,
2013-01-30 04:35:00,68.0,64.9,29.31,SW,225,14.0,41.0,90,0.02,,,-99.99,Weather View 32 v60,2013-01-30 09:35:00,
2013-01-30 04:40:00,67.0,64.0,29.29,SW,225,15.0,39.0,90,0.02,,,-99.99,Weather View 32 v60,2013-01-30 09:40:00,
2013-01-30 04:50:00,68.0,64.9,29.29,SW,225,19.0,39.0,90,0.02,,,-99.99,Weather View 32 v60,2013-01-30 09:50:00,
2013-01-30 04:55:00,68.0,64.9,29.29,SW,225,22.0,40.0,90,0.02,,,-99.99,Weather View 32 v60,2013-01-30 09:55:00,
2013-01-30 05:00:00,68.0,64.6,29.28,SW,225,26.0,40.0,89,0.02,,,-99.99,Weather View 32 v60,2013-01-30 10:00:00,
2013-01-30 05:15:00,68.0,64.9,29.27,SW,225,27.0,40.0,90,0.01,,,-99.99,Weather View 32 v60,2013-01-30 10:15:00,
2013-01-30 05:20:00,68.0,65.6,29.27,SW,225,22.0,40.0,92,0.01,,,-99.99,Weather View 32 v60,2013-01-30 10:20:00,
2013-01-30 05:24:00,68.0,64.9,29.31,SW,225,14.0,41.0,90,0.01,,,-99.99,Weather View 32 v60,2013-01-30 10:24:00,
2013-01-30 05:25:00,67.0,65.8,29.27,SW,225,19.0,40.0,96,0.01,,,-99.99,Weather View 32 v60,2013-01-30 10:25:00,
2013-01-30 05:35:00,61.0,61.0,29.25,SW,225,17.0,53.0,100,0.06,,,-99.99,Weather View 32 v60,2013-01-30 10:35:00,
2013-01-30 05:44:00,68.0,64.9,29.29,SW,225,18.0,39.0,90,0.02,,,-99.99,Weather View 32 v60,2013-01-30 10:44:00,
2013-01-30 05:45:00,58.0,58.0,29.36,WSW,247,13.0,53.0,100,0.07,,,-99.99,Weather View 32 v60,2013-01-30 10:45:00,
2013-01-30 06:04:00,68.0,64.6,29.28,SW,225,23.0,40.0,89,0.02,,,-99.99,Weather View 32 v60,2013-01-30 11:04:00,
2013-01-30 06:09:00,68.0,64.6,29.27,SW,225,29.0,40.0,89,0.02,,,-99.99,Weather View 32 v60,2013-01-30 11:09:00,
2013-01-30 06:10:00,58.0,58.0,29.41,WSW,247,2.0,53.0,100,0.07,,,-99.99,Weather View 32 v60,2013-01-30 11:10:00,
2013-01-30 06:29:00,66.0,66.0,29.25,SW,225,18.0,40.0,100,0.01,,,-99.99,Weather View 32 v60,2013-01-30 11:29:00,
2013-01-30 06:39:00,59.0,59.0,29.36,WSW,247,6.0,53.0,100,0.07,,,-99.99,Weather View 32 v60,2013-01-30 11:39:00,
2013-01-30 06:49:00,58.0,58.0,29.37,WSW,247,6.0,53.0,100,0.07,,,-99.99,Weather View 32 v60,2013-01-30 11:49:00,
2013-01-30 06:59:00,58.0,58.0,29.39,West,270,5.0,53.0,100,0.07,,,-99.99,Weather View 32 v60,2013-01-30 11:59:00,
2013-01-30 07:06:00,58.0,58.0,29.39,West,270,3.0,53.0,100,0.07,,,-99.99,Weather View 32 v60,2013-01-30 12:06:00,
2013-01-30 07:14:00,57.0,57.0,29.41,West,270,5.0,53.0,100,0.07,,,-99.99,Weather View 32 v60,2013-01-30 12:14:00,
2013-01-30 07:19:00,57.0,57.0,29.43,WNW,292,0.0,53.0,100,0.07,,,-99.99,Weather View 32 v60,2013-01-30 12:19:00,
2013-01-30 07:29:00,56.0,56.0,29.45,WSW,247,2.0,53.0,100,0.07,,,-99.99,Weather View 32 v60,2013-01-30 12:29:00,
2013-01-30 07:34:00,56.0,56.0,29.45,WSW,247,0.0,22.0,100,0.01,,,-99.99,Weather View 32 v60,2013-01-30 12:34:00,
2013-01-30 07:44:00,55.0,55.0,29.46,NW,315,5.0,18.0,100,0.00,,,-99.99,Weather View 32 v60,2013-01-30 12:44:00,
2013-01-30 07:49:00,55.0,55.0,29.45,WNW,292,0.0,15.0,100,0.00,,,-99.99,Weather View 32 v60,2013-01-30 12:49:00,
2013-01-30 07:59:00,54.0,54.0,29.46,West,270,0.0,15.0,100,0.00,,,-99.99,Weather View 32 v60,2013-01-30 12:59:00,
2013-01-30 08:06:00,54.0,54.0,29.46,East,90,0.0,15.0,100,0.00,,,-99.99,Weather View 32 v60,2013-01-30 13:06:00,
2013-01-30 08:14:00,54.0,54.0,29.46,West,270,0.0,12.0,100,0.01,,,-99.99,Weather View 32 v60,2013-01-30 13:14:00,
2013-01-30 08:24:00,54.0,54.0,29.47,West,270,0.0,12.0,100,0.01,,,-99.99,Weather View 32 v60,2013-01-30 13:24:00,
2013-01-30 08:34:00,54.0,54.0,29.49,SW,225,0.0,10.0,100,0.01,,,-99.99,Weather View 32 v60,2013-01-30 13:34:00,
2013-01-30 08:39:00,54.0,54.0,29.52,SW,225,0.0,10.0,100,0.01,,,-99.99,Weather View 32 v60,2013-01-30 13:39:00,
2013-01-30 08:44:00,54.0,54.0,29.52,SW,225,3.0,10.0,100,0.01,,,-99.99,Weather View 32 v60,2013-01-30 13:44:00,
2013-01-30 08:49:00,54.0,54.0,29.49,SW,225,0.0,5.0,100,0.01,,,-99.99,Weather View 32 v60,2013-01-30 13:49:00,
2013-01-30 08:54:00,54.0,54.0,29.49,SW,225,0.0,5.0,100,0.01,,,-99.99,Weather View 32 v60,2013-01-30 13:54:00,
2013-01-30 09:04:00,54.0,54.0,29.48,SW,225,0.0,5.0,100,0.01,,,-99.99,Weather View 32 v60,2013-01-30 14:04:00,
2013-01-30 09:14:00,54.0,54.0,29.47,SW,225,0.0,5.0,100,0.00,,,-99.99,Weather View 32 v60,2013-01-30 14:14:00,
2013-01-30 09:19:00,54.0,54.0,29.46,SW,225,0.0,5.0,100,0.00,,,-99.99,Weather View 32 v60,2013-01-30 14:19:00,
2013-01-30 09:29:00,54.0,54.0,29.44,East,90,4.0,7.0,100,0.00,,,-99.99,Weather View 32 v60,2013-01-30 14:29:00,
2013-01-30 09:39:00,54.0,54.0,29.45,East,90,5.0,7.0,100,0.00,,,-99.99,Weather View 32 v60,2013-01-30 14:39:00,
2013-01-30 09:49:00,54.0,54.0,29.45,East,90,8.0,8.0,100,0.00,,,-99.99,Weather View 32 v60,2013-01-30 14:49:00,
2013-01-30 09:59:00,54.0,54.0,29.47,SW,225,8.0,11.0,100,0.00,,,-99.99,Weather View 32 v60,2013-01-30 14:59:00,
2013-01-30 10:08:00,54.0,54.0,29.47,SW,225,6.0,11.0,100,0.00,,,-99.99,Weather View 32 v60,2013-01-30 15:08:00,
2013-01-30 10:14:00,54.0,54.0,29.45,SW,225,6.0,11.0,100,0.00,,,-99.99,Weather View 32 v60,2013-01-30 15:14:00,
2013-01-30 10:19:00,54.0,54.0,29.44,SW,225,6.0,11.0,100,0.00,,,-99.99,Weather View 32 v60,2013-01-30 15:19:00,
2013-01-30 10:24:00,54.0,54.0,29.44,SW,225,5.0,11.0,100,0.00,,,-99.99,Weather View 32 v60,2013-01-30 15:24:00,
2013-01-30 10:29:00,54.0,54.0,29.44,SW,225,5.0,11.0,100,0.00,,,-99.99,Weather View 32 v60,2013-01-30 15:29:00,
2013-01-30 10:39:00,54.0,54.0,29.43,SW,225,10.0,11.0,100,0.00,,,-99.99,Weather View 32 v60,2013-01-30 15:39:00,
2013-01-30 10:49:00,54.0,54.0,29.42,SW,225,9.0,11.0,100,0.00,,,-99.99,Weather View 32 v60,2013-01-30 15:49:00,
2013-01-30 10:54:00,54.0,54.0,29.42,SW,225,7.0,11.0,100,0.00,,,-99.99,Weather View 32 v60,2013-01-30 15:54:00,
2013-01-30 10:59:00,54.0,54.0,29.43,SW,225,10.0,14.0,100,0.00,,,-99.99,Weather View 32 v60,2013-01-30 15:59:00,
2013-01-30 11:09:00,54.0,54.0,29.43,SW,225,12.0,14.0,100,0.00,,,-99.99,Weather View 32 v60,2013-01-30 16:09:00,
2013-01-30 11:14:00,54.0,54.0,29.44,SW,225,7.0,14.0,100,0.01,,,-99.99,Weather View 32 v60,2013-01-30 16:14:00,
2013-01-30 11:19:00,54.0,54.0,29.41,SW,225,11.0,14.0,100,0.01,,,-99.99,Weather View 32 v60,2013-01-30 16:19:00,
2013-01-30 11:29:00,54.0,54.0,29.43,SW,225,10.0,16.0,100,0.01,,,-99.99,Weather View 32 v60,2013-01-30 16:29:00,
2013-01-30 11:34:00,54.0,54.0,29.43,SW,225,11.0,16.0,100,0.01,,,-99.99,Weather View 32 v60,2013-01-30 16:34:00,
2013-01-30 11:44:00,54.0,54.0,29.42,SW,225,9.0,16.0,100,0.01,,,-99.99,Weather View 32 v60,2013-01-30 16:44:00,
2013-01-30 11:49:00,54.0,54.0,29.40,SW,225,12.0,16.0,100,0.01,,,-99.99,Weather View 32 v60,2013-01-30 16:49:00,
2013-01-30 11:54:00,54.0,54.0,29.40,SW,225,14.0,16.0,100,0.02,,,-99.99,Weather View 32 v60,2013-01-30 16:54:00,
2013-01-30 11:59:00,54.0,54.0,29.39,SW,225,7.0,16.0,100,0.02,,,-99.99,Weather View 32 v60,2013-01-30 16:59:00,
2013-01-30 12:04:00,54.0,54.0,29.39,SW,225,5.0,16.0,100,0.02,,,-99.99,Weather View 32 v60,2013-01-30 17:04:00,
2013-01-30 12:09:00,54.0,54.0,29.39,SW,225,9.0,16.0,100,0.01,,,-99.99,Weather View 32 v60,2013-01-30 17:09:00,
2013-01-30 12:19:00,54.0,54.0,29.39,SW,225,6.0,16.0,100,0.01,,,-99.99,Weather View 32 v60,2013-01-30 17:19:00,
2013-01-30 12:24:00,54.0,54.0,29.39,SW,225,10.0,16.0,100,0.01,,,-99.99,Weather View 32 v60,2013-01-30 17:24:00,
2013-01-30 12:29:00,54.0,54.0,29.39,SW,225,11.0,16.0,100,0.01,,,-99.99,Weather View 32 v60,2013-01-30 17:29:00,
2013-01-30 12:34:00,54.0,54.0,29.39,SW,225,9.0,16.0,100,0.01,,,-99.99,Weather View 32 v60,2013-01-30 17:34:00,
2013-01-30 12:44:00,54.0,54.0,29.37,SW,225,10.0,17.0,100,0.01,,,-99.99,Weather View 32 v60,2013-01-30 17:44:00,
2013-01-30 12:49:00,54.0,54.0,29.35,SW,225,11.0,17.0,100,0.01,,,-99.99,Weather View 32 v60,2013-01-30 17:49:00,
2013-01-30 12:54:00,54.0,54.0,29.35,SW,225,10.0,17.0,100,0.00,,,-99.99,Weather View 32 v60,2013-01-30 17:54:00,
2013-01-30 13:04:00,55.0,55.0,29.34,SW,225,10.0,17.0,100,0.00,,,-99.99,Weather View 32 v60,2013-01-30 18:04:00,
2013-01-30 13:10:00,55.0,55.0,29.35,SW,225,8.0,17.0,100,0.00,,,-99.99,Weather View 32 v60,2013-01-30 18:10:00,
2013-01-30 13:19:00,55.0,55.0,29.32,SW,225,10.0,17.0,100,0.00,,,-99.99,Weather View 32 v60,2013-01-30 18:19:00,
2013-01-30 13:24:00,55.0,55.0,29.32,SW,225,10.0,17.0,100,0.00,,,-99.99,Weather View 32 v60,2013-01-30 18:24:00,
2013-01-30 13:29:00,55.0,55.0,29.33,SW,225,6.0,17.0,100,0.00,,,-99.99,Weather View 32 v60,2013-01-30 18:29:00,
2013-01-30 13:34:00,54.0,54.0,29.33,SW,225,9.0,17.0,100,0.00,,,-99.99,Weather View 32 v60,2013-01-30 18:34:00,
2013-01-30 13:39:00,54.0,54.0,29.35,SW,225,9.0,17.0,100,0.00,,,-99.99,Weather View 32 v60,2013-01-30 18:39:00,
2013-01-30 13:44:00,54.0,54.0,29.35,WSW,247,12.0,17.0,100,0.00,,,-99.99,Weather View 32 v60,2013-01-30 18:44:00,
2013-01-30 13:49:00,54.0,54.0,29.32,SW,225,10.0,17.0,100,0.00,,,-99.99,Weather View 32 v60,2013-01-30 18:49:00,
2013-01-30 13:54:00,54.0,54.0,29.32,SW,225,9.0,17.0,100,0.00,,,-99.99,Weather View 32 v60,2013-01-30 18:54:00,
2013-01-30 14:04:00,54.0,54.0,29.32,SW,225,9.0,16.0,100,0.00,,,-99.99,Weather View 32 v60,2013-01-30 19:04:00,
2013-01-30 14:10:00,53.0,53.0,29.31,SW,225,10.0,16.0,100,0.00,,,-99.99,Weather View 32 v60,2013-01-30 19:10:00,
2013-01-30 14:19:00,53.0,53.0,29.33,SW,225,10.0,16.0,100,0.00,,,-99.99,Weather View 32 v60,2013-01-30 19:19:00,
2013-01-30 14:29:00,53.0,53.0,29.31,SW,225,12.0,18.0,100,0.00,,,-99.99,Weather View 32 v60,2013-01-30 19:29:00,
2013-01-30 14:34:00,53.0,53.0,29.31,SW,225,10.0,18.0,100,0.00,,,-99.99,Weather View 32 v60,2013-01-30 19:34:00,
2013-01-30 14:39:00,53.0,53.0,29.31,SW,225,9.0,19.0,100,0.00,,,-99.99,Weather View 32 v60,2013-01-30 19:39:00,
2013-01-30 14:44:00,53.0,53.0,29.31,SW,225,10.0,19.0,100,0.00,,,-99.99,Weather View 32 v60,2013-01-30 19:44:00,
2013-01-30 14:54:00,53.0,53.0,29.31,SW,225,10.0,19.0,100,0.00,,,-99.99,Weather View 32 v60,2013-01-30 19:54:00,
2013-01-30 14:59:00,53.0,53.0,29.32,SW,225,7.0,19.0,100,0.00,,,-99.99,Weather View 32 v60,2013-01-30 19:59:00,
2013-01-30 15:04:00,53.0,53.0,29.32,SW,225,10.0,19.0,100,0.00,,,-99.99,Weather View 32 v60,2013-01-30 20:04:00,
2013-01-30 15:09:00,53.0,53.0,29.33,SW,225,7.0,19.0,100,0.00,,,-99.99,Weather View 32 v60,2013-01-30 20:09:00,
2013-01-30 15:19:00,53.0,53.0,29.31,SW,225,10.0,19.0,100,0.00,,,-99.99,Weather View 32 v60,2013-01-30 20:19:00,
2013-01-30 15:29:00,53.0,53.0,29.31,SW,225,5.0,19.0,100,0.00,,,-99.99,Weather View 32 v60,2013-01-30 20:29:00,
2013-01-30 15:39:00,53.0,53.0,29.30,SW,225,11.0,19.0,100,0.00,,,-99.99,Weather View 32 v60,2013-01-30 20:39:00,
2013-01-30 15:49:00,52.0,52.0,29.31,SW,225,15.0,19.0,100,0.00,,,-99.99,Weather View 32 v60,2013-01-30 20:49:00,
2013-01-30 15:59:00,52.0,52.0,29.31,SW,225,6.0,19.0,100,0.00,,,-99.99,Weather View 32 v60,2013-01-30 20:59:00,
2013-01-30 16:09:00,52.0,52.0,29.33,SW,225,7.0,19.0,100,0.00,,,-99.99,Weather View 32 v60,2013-01-30 21:09:00,
2013-01-30 16:14:00,52.0,52.0,29.33,SW,225,12.0,19.0,100,0.00,,,-99.99,Weather View 32 v60,2013-01-30 21:14:00,
2013-01-30 16:19:00,52.0,52.0,29.31,SW,225,9.0,19.0,100,0.00,,,-99.99,Weather View 32 v60,2013-01-30 21:19:00,
2013-01-30 16:29:00,52.0,52.0,29.31,SW,225,5.0,18.0,100,0.00,,,-99.99,Weather View 32 v60,2013-01-30 21:29:00,
2013-01-30 16:39:00,52.0,52.0,29.30,SW,225,5.0,18.0,100,0.00,,,-99.99,Weather View 32 v60,2013-01-30 21:39:00,
2013-01-30 16:49:00,51.0,51.0,29.30,WSW,247,9.0,18.0,100,0.00,,,-99.99,Weather View 32 v60,2013-01-30 21:49:00,
2013-01-30 16:59:00,51.0,51.0,29.31,SW,225,11.0,18.0,100,0.00,,,-99.99,Weather View 32 v60,2013-01-30 21:59:00,
2013-01-30 17:09:00,51.0,51.0,29.31,SW,225,8.0,18.0,100,0.00,,,-99.99,Weather View 32 v60,2013-01-30 22:09:00,
2013-01-30 17:19:00,51.0,51.0,29.31,SW,225,3.0,18.0,100,0.00,,,-99.99,Weather View 32 v60,2013-01-30 22:19:00,
2013-01-30 17:29:00,51.0,51.0,29.31,SW,225,6.0,15.0,100,0.00,,,-99.99,Weather View 32 v60,2013-01-30 22:29:00,
2013-01-30 17:39:00,51.0,51.0,29.29,SW,225,8.0,15.0,100,0.00,,,-99.99,Weather View 32 v60,2013-01-30 22:39:00,
2013-01-30 17:49:00,51.0,51.0,29.29,SW,225,7.0,18.0,100,0.00,,,-99.99,Weather View 32 v60,2013-01-30 22:49:00,
2013-01-30 17:59:00,51.0,51.0,29.29,SW,225,4.0,18.0,100,0.00,,,-99.99,Weather View 32 v60,2013-01-30 22:59:00,
2013-01-30 18:09:00,51.0,51.0,29.28,SW,225,6.0,18.0,100,0.00,,,-99.99,Weather View 32 v60,2013-01-30 23:09:00,
2013-01-30 18:19:00,51.0,51.0,29.28,SW,225,11.0,18.0,100,0.00,,,-99.99,Weather View 32 v60,2013-01-30 23:19:00,
2013-01-30 18:29:00,50.0,50.0,29.27,SW,225,5.0,18.0,100,0.00,,,-99.99,Weather View 32 v60,2013-01-30 23:29:00,
2013-01-30 18:39:00,50.0,50.0,29.28,SW,225,4.0,18.0,100,0.00,,,-99.99,Weather View 32 v60,2013-01-30 23:39:00,
2013-01-30 18:49:00,50.0,50.0,29.27,West,270,9.0,19.0,100,0.00,,,-99.99,Weather View 32 v60,2013-01-30 23:49:00,
2013-01-30 18:59:00,51.0,51.0,29.26,SW,225,4.0,19.0,100,0.00,,,-99.99,Weather View 32 v60,2013-01-30 23:59:00,
2013-01-30 19:09:00,50.0,50.0,29.26,SW,225,4.0,19.0,100,0.00,,,-99.99,Weather View 32 v60,2013-01-31 00:09:00,
2013-01-30 19:19:00,50.0,50.0,29.27,WSW,247,5.0,19.0,100,0.00,,,-99.99,Weather View 32 v60,2013-01-31 00:19:00,
2013-01-30 19:29:00,47.0,47.0,29.31,WSW,247,7.0,19.0,100,0.01,,,-99.99,Weather View 32 v60,2013-01-31 00:29:00,
2013-01-30 19:34:00,46.0,46.0,29.31,WSW,247,6.0,19.0,100,0.02,,,-99.99,Weather View 32 v60,2013-01-31 00:34:00,
2013-01-30 19:44:00,44.0,44.0,29.33,WSW,247,17.0,19.0,100,0.02,,,-99.99,Weather View 32 v60,2013-01-31 00:44:00,
2013-01-30 19:49:00,43.0,43.0,29.35,WNW,292,6.0,19.0,100,0.02,,,-99.99,Weather View 32 v60,2013-01-31 00:49:00,
2013-01-30 19:59:00,42.0,42.0,29.36,West,270,5.0,19.0,100,0.02,,,-99.99,Weather View 32 v60,2013-01-31 00:59:00,
2013-01-30 20:09:00,42.0,42.0,29.36,West,270,6.0,19.0,100,0.02,,,-99.99,Weather View 32 v60,2013-01-31 01:09:00,
2013-01-30 20:14:00,42.0,42.0,29.36,WSW,247,9.0,19.0,100,0.02,,,-99.99,Weather View 32 v60,2013-01-31 01:14:00,
2013-01-30 20:24:00,41.0,41.0,29.36,NNW,337,0.0,19.0,100,0.02,,,-99.99,Weather View 32 v60,2013-01-31 01:24:00,
2013-01-30 20:29:00,41.0,41.0,29.38,SW,225,2.0,19.0,100,0.01,,,-99.99,Weather View 32 v60,2013-01-31 01:29:00,
2013-01-30 20:34:00,41.0,41.0,29.38,WSW,247,5.0,19.0,100,0.00,,,-99.99,Weather View 32 v60,2013-01-31 01:34:00,
2013-01-30 20:39:00,41.0,41.0,29.39,WSW,247,6.0,19.0,100,0.00,,,-99.99,Weather View 32 v60,2013-01-31 01:39:00,
2013-01-30 20:44:00,40.0,40.0,29.39,West,270,5.0,19.0,100,0.00,,,-99.99,Weather View 32 v60,2013-01-31 01:44:00,
2013-01-30 20:49:00,40.0,40.0,29.39,WSW,247,5.0,19.0,100,0.00,,,-99.99,Weather View 32 v60,2013-01-31 01:49:00,
2013-01-30 20:54:00,40.0,40.0,29.39,SW,225,4.0,19.0,100,0.00,,,-99.99,Weather View 32 v60,2013-01-31 01:54:00,
2013-01-30 20:59:00,40.0,40.0,29.40,WSW,247,3.0,19.0,100,0.00,,,-99.99,Weather View 32 v60,2013-01-31 01:59:00,
2013-01-30 21:04:00,40.0,40.0,29.40,WSW,247,0.0,19.0,100,0.00,,,-99.99,Weather View 32 v60,2013-01-31 02:04:00,
2013-01-30 21:09:00,38.0,38.0,29.42,West,270,2.0,19.0,100,0.00,,,-99.99,Weather View 32 v60,2013-01-31 02:09:00,
2013-01-30 21:14:00,38.0,38.0,29.42,West,270,5.0,18.0,100,0.00,,,-99.99,Weather View 32 v60,2013-01-31 02:14:00,
2013-01-30 21:24:00,37.0,37.0,29.43,WSW,247,6.0,17.0,100,0.00,,,-99.99,Weather View 32 v60,2013-01-31 02:24:00,
2013-01-30 21:29:00,37.0,37.0,29.45,WSW,247,6.0,17.0,100,0.00,,,-99.99,Weather View 32 v60,2013-01-31 02:29:00,
2013-01-30 21:39:00,36.0,36.0,29.46,West,270,5.0,23.0,100,0.00,,,-99.99,Weather View 32 v60,2013-01-31 02:39:00,
2013-01-30 21:49:00,36.0,36.0,29.48,WSW,247,9.0,23.0,100,0.00,,,-99.99,Weather View 32 v60,2013-01-31 02:49:00,
2013-01-30 21:59:00,36.0,36.0,29.48,WSW,247,1.0,23.0,100,0.00,,,-99.99,Weather View 32 v60,2013-01-31 02:59:00,
2013-01-30 22:04:00,35.0,35.0,29.48,West,270,2.0,23.0,100,0.00,,,-99.99,Weather View 32 v60,2013-01-31 03:04:00,
2013-01-30 22:09:00,35.0,35.0,29.48,West,270,9.0,23.0,100,0.00,,,-99.99,Weather View 32 v60,2013-01-31 03:09:00,
2013-01-30 22:14:00,35.0,35.0,29.48,West,270,1.0,23.0,100,0.00,,,-99.99,Weather View 32 v60,2013-01-31 03:14:00,
2013-01-30 22:19:00,35.0,35.0,29.49,WSW,247,12.0,23.0,100,0.00,,,-99.99,Weather View 32 v60,2013-01-31 03:19:00,
2013-01-30 22:29:00,35.0,35.0,29.50,West,270,3.0,23.0,100,0.00,,,-99.99,Weather View 32 v60,2013-01-31 03:29:00,
2013-01-30 22:39:00,35.0,35.0,29.50,West,270,6.0,23.0,100,0.00,,,-99.99,Weather View 32 v60,2013-01-31 03:39:00,
2013-01-30 22:49:00,34.0,34.0,29.52,WSW,247,16.0,17.0,100,0.00,,,-99.99,Weather View 32 v60,2013-01-31 03:49:00,
2013-01-30 22:59:00,33.0,33.0,29.53,West,270,4.0,18.0,100,0.00,,,-99.99,Weather View 32 v60,2013-01-31 03:59:00,